Flag for Germany Weather past 2 weeks in Oranienburg, Brandenburg, Germany

Now
69 °F

Partly sunny.


Feels Like: 69 °F
Forecast: 49 / 59 °F
Wind: 5 mph from Northwest

Location: Berlin-Tegel

Current Time: May 25, 2015 at 12:49:13 PM

Latest Report: May 25, 2015 at 12:00 PM


Visibility: 19 mi

Pressure: 29.88 "Hg

Humidity: 54%

Dew point: 51 °F

Location of OranienburgLocation

Historic Weather in Oranienburg — Graph

°F

Oranienburg temperature yesterday

Maximum temperature yesterday: 69 °F (at 5:00 PM)
Minimum temperature yesterday: 40 °F (at 6:00 AM)
Average temperature yesterday: 57 °F

Past Weeks' High & Low Weather Summary

 TemperatureHumidityPressure
High82 °F (May 12, 4:00 PM)99% (May 15, 7:00 AM)30.40 "Hg (May 15, 7:00 AM)
Low37 °F (May 15, 6:00 AM)20% (May 24, 6:00 PM)29.59 "Hg (May 19, 4:00 AM)
Average55 °F63%30.04 "Hg
* Reported May 10 12:00 Noon — May 25 12:00 Noon, Oranienburg, Weather by CustomWeather, © 2015

Note: Actual official high and low records may vary slightly from our data, if they occured in-between our weather recording intervals... More about our weather records

Advertising

Oranienburg weather history for previous 24 hours

 ConditionsComfort  
Time TempWeatherWind HumidityBarometerVisibility
12:00 PM
Mon, May 25
69 °FPartly sunny.5 mph54%29.88 "Hg19 mi
11:00 AM67 °FPartly sunny.3 mph54%29.90 "Hg19 mi
10:00 AM66 °FPartly sunny.2 mph58%29.92 "Hg19 mi
9:00 AM63 °FPartly sunny.2 mph62%29.93 "Hg19 mi
8:00 AM58 °FOvercast.No wind70%29.93 "Hg19 mi
7:00 AM55 °FLight rain. Overcast.1 mph74%29.94 "Hg19 mi
6:00 AM53 °FOvercast.1 mph70%29.95 "Hg17 mi
5:00 AM50 °FPartly sunny.1 mph76%29.96 "Hg22 mi
4:00 AM50 °FOvercast.1 mph71%29.96 "Hg28 mi
3:00 AM49 °FClear.1 mph70%29.97 "Hg25 mi
2:00 AM50 °FPassing clouds.1 mph74%29.99 "Hg25 mi
1:00 AM50 °FPassing clouds.1 mph74%30.01 "Hg25 mi
12:00 AM53 °FClear.No wind66%30.02 "Hg25 mi
11:00 PM
Sun, May 24
58 °FPassing clouds.1 mph49%30.02 "Hg25 mi
10:00 PM60 °FPassing clouds.1 mph44%30.02 "Hg25 mi
9:00 PM66 °FPassing clouds.1 mph34%30.02 "Hg25 mi
8:00 PM67 °FPassing clouds.3 mph31%30.02 "Hg25 mi
7:00 PM68 °FPassing clouds.3 mph28%30.03 "Hg25 mi
6:00 PM69 °FPassing clouds.3 mph20%30.05 "Hg25 mi
5:00 PM69 °FPassing clouds.3 mph27%30.06 "Hg25 mi
4:00 PM68 °FScattered clouds.2 mph31%30.07 "Hg25 mi
3:00 PM67 °FScattered clouds.2 mph36%30.10 "Hg25 mi
2:00 PM64 °FScattered clouds.2 mph34%30.12 "Hg25 mi
1:00 PM62 °FScattered clouds.2 mph44%30.13 "Hg25 mi
12:00 PM60 °FScattered clouds.2 mph50%30.14 "Hg25 mi
Weather by CustomWeather, © 2015

See weather overviewHow to use our weather pages